Wetbulb
62.44 60.31 55.12 49.59 42.07 38.67 36.33 42.36 46.42 48.57 49.45 56.76 64.19 62.78 59.86 61.47 58.96 55.38 68.93 69.91 72.93 75.87 77.30 77.21 77.36 77.23 76.30 76.25 76.12 75.74 75.95 75.93 76.24 76.09 76.17 76.02 76.32 75.82 75.72 75.70 75.47 74.47 73.99 73.84 73.45 73.13 73.00 73.63 74.11
61.46 59.92 52.75 44.22 37.20 31.60 35.25 42.80 46.23 49.51 51.98 58.35 64.07 63.96 61.68 59.85 68.41 66.32 66.31 69.43 75.77 76.03 76.89 76.60 77.38 77.08 76.38 76.02 75.94 75.58 75.88 75.98 76.16 76.06 75.70 75.57 75.72 75.70 75.27 75.57 75.47 74.21 73.94 73.81 73.95 74.31 74.32 74.02 73.22
58.32 59.18 48.90 39.69 33.40 31.73 34.70 43.09 46.99 50.06 54.26 58.26 63.74 66.33 65.24 63.00 68.81 67.16 71.26 72.57 75.51 75.57 76.52 76.65 77.17 76.67 76.15 76.05 75.96 75.81 75.86 75.98 76.31 75.87 75.40 75.32 75.25 75.67 75.79 75.55 75.35 74.41 74.02 74.18 74.30 74.25 73.88 73.47 73.07
52.80 48.42 46.04 37.35 33.59 37.29 39.85 43.41 45.85 47.27 50.05 52.09 64.88 64.43 68.44 70.51 69.71 70.64 73.35 75.33 74.42 75.12 76.05 77.12 76.84 76.34 75.95 76.14 76.01 75.76 75.91 76.11 76.38 76.00 75.42 75.27 75.07 75.39 75.33 75.27 75.50 75.31 74.69 74.64 74.23 73.81 73.63 73.43 73.86
50.70 45.13 37.02 33.06 35.68 38.78 42.69 44.80 45.97 45.73 46.89 48.76 51.88 64.79 65.32 68.25 69.70 72.42 74.02 74.13 73.73 74.76 76.14 76.34 76.61 76.29 76.05 76.27 76.07 76.02 76.14 76.10 76.25 75.79 75.25 74.92 74.97 74.98 75.11 75.37 75.37 75.35 75.07 74.79 74.38 73.87 74.20 74.05 74.22
45.17 43.69 34.35 32.90 37.60 41.24 43.08 45.03 44.50 44.92 46.32 48.22 63.41 65.65 65.50 70.56 72.44 73.02 73.34 73.52 74.32 74.09 74.67 75.48 76.34 75.91 75.69 76.10 76.02 75.76 75.88 76.00 75.92 75.68 75.41 75.04 74.86 75.11 75.28 75.54 75.74 76.00 75.57 75.22 74.77 74.87 74.57 73.85 73.57
40.56 39.34 34.92 35.59 39.18 41.14 44.04 45.66 43.99 44.77 45.45 47.63 66.08 64.47 67.10 70.11 72.60 72.98 73.30 73.77 73.98 74.18 73.90 74.84 74.78 75.32 75.87 75.76 75.53 75.65 75.49 75.64 75.33 75.23 74.93 75.02 75.12 75.34 75.35 75.50 75.71 75.66 75.24 74.70 74.52 74.18 73.60 73.30 73.40
43.45 40.14 36.58 37.04 38.80 39.67 46.62 46.69 46.30 46.04 48.52 53.74 60.09 63.63 64.24 70.24 72.71 72.66 72.63 72.71 73.22 73.51 73.13 73.17 74.33 74.51 74.11 74.44 75.66 75.58 75.44 75.33 75.00 74.83 74.64 74.96 75.19 75.11 75.22 74.63 75.07 75.23 74.87 74.17 73.90 73.60 73.50 73.23 73.01
44.84 35.52 32.65 35.92 39.20 42.44 48.06 45.06 50.25 51.85 49.55 52.01 56.58 68.13 70.37 72.38 71.67 70.95 70.47 71.13 71.67 72.15 72.55 73.35 73.78 73.67 73.15 72.95 74.09 75.08 75.24 75.00 74.84 74.47 74.47 73.72 72.13 72.61 72.99 73.84 73.98 74.69 74.37 73.73 73.50 73.28 72.93 72.93 73.11
39.70 33.25 36.08 41.98 43.80 43.99 47.31 46.40 48.07 48.21 48.46 50.11 60.88 69.63 71.55 71.08 69.93 68.62 68.51 68.45 69.33 70.33 71.19 72.31 72.17 72.51 72.37 72.80 72.84 72.11 72.37 72.40 72.01 71.63 71.70 70.33 69.24 69.26 70.76 72.19 73.92 73.70 73.83 73.50 73.30 73.16 73.28 73.16 69.28
38.98 36.11 41.09 44.52 45.60 46.57 46.69 47.07 48.69 47.03 45.40 49.00 56.99 64.70 70.05 69.20 68.53 68.02 68.09 68.25 68.63 70.32 71.46 71.67 71.69 72.12 71.27 71.58 71.41 71.30 70.49 70.53 70.17 70.07 69.58 68.21 67.89 67.43 68.77 67.31 69.06 69.66 71.27 69.08 68.34 69.02 68.92 68.75 69.80
36.49 42.09 42.90 44.51 45.99 45.48 44.91 47.29 46.49 47.41 47.44 51.21 52.14 57.93 61.45 68.54 67.27 67.34 67.20 67.06 67.68 69.07 70.15 70.94 71.04 70.99 70.33 71.05 69.96 69.80 69.28 68.33 67.53 67.44 68.15 67.04 66.41 66.86 66.28 67.22 67.11 65.84 65.03 65.96 67.03 68.75 71.32 71.87 70.61
38.76 41.31 43.91 44.13 43.24 43.74 46.07 44.98 45.55 46.29 49.94 52.13 52.77 58.12 64.11 68.80 67.58 67.88 67.71 67.43 67.34 67.31 68.39 69.31 69.48 69.54 69.32 68.64 68.00 67.90 66.79 67.02 67.18 67.05 68.02 66.82 66.51 67.01 65.74 65.83 66.40 65.84 66.01 67.50 68.96 70.84 70.24 70.11 69.71
43.21 43.70 44.12 43.83 42.51 41.66 41.88 43.34 44.06 46.99 50.22 51.20 51.57 51.89 54.46 65.38 67.92 67.27 66.70 65.99 66.16 66.62 66.52 67.88 68.35 67.49 68.13 67.16 66.64 66.74 65.06 65.93 66.79 67.74 68.63 68.08 67.50 67.01 66.18 65.13 63.66 65.24 67.86 69.25 70.45 70.21 68.75 68.59 68.48
44.23 39.76 42.22 42.96 42.44 41.38 42.82 41.24 42.48 47.26 49.94 49.54 50.28 50.64 54.12 56.70 68.31 66.98 66.70 66.00 66.02 66.21 66.40 66.26 66.73 66.66 66.47 66.42 66.06 66.42 66.22 67.25 67.65 68.57 68.51 68.92 68.01 66.62 66.95 66.73 68.86 70.02 70.33 69.30 68.72 67.63 66.91 66.30 67.50
39.94 37.37 32.70 40.07 43.38 44.41 41.48 36.19 43.52 45.81 46.90 47.56 49.62 51.07 52.24 64.00 66.48 67.66 67.87 67.02 66.52 65.96 65.52 66.08 67.38 65.51 64.85 65.74 66.82 66.88 67.25 68.42 69.10 68.92 68.75 69.70 68.99 67.68 66.95 68.43 69.95 70.14 69.48 68.47 67.33 67.07 66.61 66.66 67.06
34.80 31.23 35.72 39.18 44.53 43.82 41.07 37.62 43.97 45.60 46.48 46.53 47.74 49.12 50.06 55.66 62.06 66.38 68.09 67.98 66.63 66.39 65.87 66.37 66.38 64.69 63.73 64.42 67.81 67.46 68.53 68.48 69.45 69.58 69.24 68.89 69.68 71.02 70.94 71.00 70.14 69.15 68.21 68.03 67.84 67.02 66.86 65.93 64.44
31.67 33.02 35.64 36.22 41.24 42.92 41.10 41.18 45.35 47.28 44.83 45.49 46.37 47.87 48.81 51.18 58.93 64.05 65.98 66.62 67.54 66.25 65.99 68.10 66.11 65.94 65.62 68.00 69.21 69.15 69.82 70.09 70.36 69.31 69.12 68.18 70.38 71.54 70.63 68.56 68.92 68.45 67.31 65.85 65.81 65.62 60.95 60.89 58.30
38.67 36.95 35.00 38.53 43.13 40.83 40.14 40.98 43.17 45.52 42.74 44.02 45.66 46.30 47.50 49.52 57.19 62.53 66.20 67.73 68.28 67.05 66.50 69.19 66.11 69.85 69.94 69.46 69.20 68.44 67.44 70.30 70.98 71.55 71.57 71.54 71.03 71.16 69.23 68.21 68.41 66.39 63.35 60.93 60.57 62.60 56.16 55.29 55.26
38.41 35.43 35.11 39.42 43.17 42.03 39.89 39.24 43.18 44.82 45.10 44.00 45.50 46.00 47.25 51.67 56.44 57.44 61.84 67.63 68.17 65.09 67.64 69.89 68.71 70.37 70.40 70.28 68.95 68.42 70.00 69.64 69.88 69.62 69.20 69.17 68.89 68.77 68.06 67.02 65.56 61.93 59.28 58.27 58.04 56.87 57.41 54.75 53.89
36.76 35.08 35.36 36.08 40.95 42.55 38.92 36.97 40.13 44.00 44.46 45.22 46.83 47.44 48.03 57.15 55.44 62.07 62.66 61.02 62.17 62.99 65.25 69.72 70.34 70.24 70.36 70.65 68.83 69.83 69.03 68.30 67.08 66.64 66.30 66.57 66.30 65.02 63.65 62.33 61.17 59.65 58.44 56.89 56.52 55.57 55.22 52.04 52.81
33.60 39.86 39.31 38.18 36.79 31.36 40.43 28.42 36.59 40.54 41.95 43.52 44.95 46.23 46.67 60.37 63.16 64.11 64.02 60.74 61.94 62.92 64.42 66.23 68.31 70.55 71.00 70.96 69.19 68.71 67.56 66.01 64.85 64.98 63.62 62.46 62.70 62.20 61.94 60.11 59.23 57.89 56.28 55.75 55.65 55.68 53.66 50.82 49.72
37.91 43.71 40.11 38.15 34.15 32.61 35.16 28.43 34.50 38.41 39.23 41.76 43.20 45.18 46.37 58.50 63.62 64.48 64.68 61.15 63.40 62.00 62.34 65.32 65.29 70.48 71.16 69.87 69.33 68.92 67.51 65.70 64.37 62.35 60.30 59.72 59.83 60.32 60.20 59.06 58.18 56.98 55.61 55.19 55.07 54.83 54.51 53.76 51.66
44.25 39.35 36.97 34.54 30.49 24.90 32.11 30.67 31.96 33.96 38.70 41.07 43.83 45.31 47.13 58.15 61.48 63.39 64.21 64.40 62.24 63.29 62.99 64.46 64.24 63.57 70.44 69.97 69.01 68.02 65.45 63.32 60.73 59.50 58.49 57.91 57.67 57.70 58.13 57.90 56.30 55.63 55.27 54.95 54.91 54.83 54.50 53.97 53.29
40.73 34.24 24.93 21.00 19.57 22.04 34.96 31.85 33.57 38.35 41.89 43.59 44.22 44.68 46.33 57.33 60.42 61.20 60.48 61.36 65.32 65.63 63.16 62.66 62.61 58.39 69.48 69.96 67.73 66.77 65.06 62.86 59.92 58.85 58.46 57.58 56.54 55.37 55.29 54.98 55.02 55.01 55.11 55.41 55.17 54.55 54.30 53.57 52.97
36.25 35.37 27.05 17.94 21.44 25.25 34.51 27.81 32.48 42.14 44.55 45.61 45.92 45.21 46.38 55.20 62.55 61.39 60.40 61.23 65.19 64.78 66.72 63.18 60.49 64.42 69.52 69.17 67.26 66.51 64.82 62.88 60.95 59.71 58.51 56.96 55.61 54.62 54.68 54.94 55.18 55.63 55.79 55.51 55.07 54.71 53.99 53.26 53.04
37.90 32.41 35.14 30.02 30.66 26.48 28.94 33.73 41.75 44.02 44.99 45.38 44.76 45.75 44.97 56.59 63.55 64.28 64.34 63.95 67.28 68.01 68.53 68.50 68.49 69.16 69.96 68.00 66.90 65.92 64.97 62.71 61.01 59.50 57.66 56.41 55.37 55.46 54.56 54.53 54.36 55.18 55.75 55.79 54.97 54.59 53.48 53.20 52.82
38.89 40.81 28.46 28.65 22.09 21.10 29.18 31.13 33.01 38.73 42.21 44.80 45.44 47.23 46.59 54.42 63.49 64.61 65.77 66.49 67.60 68.51 69.28 69.49 69.22 68.63 68.50 67.98 67.00 64.89 63.55 61.61 59.89 57.94 56.56 55.57 54.02 53.88 53.56 53.46 54.24 54.74 55.04 55.18 54.42 53.52 53.07 53.12 53.09
35.42 32.24 32.26 31.34 30.08 25.77 25.17 28.85 39.51 39.63 42.21 42.90 44.47 47.58 48.81 57.28 62.72 64.24 65.46 66.29 67.61 68.52 68.32 68.61 68.36 67.67 66.41 64.33 61.95 60.39 59.84 59.31 58.32 56.49 55.25 54.05 53.02 53.07 53.13 53.88 54.17 54.90 55.24 54.68 53.82 53.31 53.71 53.37 52.34
39.10 36.54 35.65 27.29 25.55 31.71 29.08 30.94 44.24 43.70 45.21 45.18 45.52 47.80 49.42 55.72 63.05 64.19 64.94 65.32 66.88 66.52 67.01 67.78 68.05 66.21 63.73 61.90 60.42 58.82 57.99 57.38 55.66 54.44 53.76 53.64 52.91 52.89 53.22 54.13 54.87 55.24 55.09 54.40 53.72 53.70 53.25 52.84 52.44
MSLP
1011.07 1010.58 1010.54 1010.77 1011.94 1012.15 1010.74 1008.48 1006.58 1005.19 1004.52 1003.15 1003.26 1003.99 1004.03 1004.29 1006.04 1008.03 1008.83 1009.82 1009.89 1009.88 1009.89 1009.66 1009.79 1009.95 1010.31 1009.97 1009.59 1009.84 1010.31 1010.70 1011.05 1011.07 1011.01 1011.28 1011.54 1011.83 1012.11 1012.36 1012.53 1012.70 1012.84 1012.91 1012.98 1013.06 1013.06 1012.97 1012.87
1011.05 1010.61 1010.77 1011.40 1012.32 1012.30 1010.09 1007.81 1005.95 1004.08 1003.70 1003.36 1002.83 1003.07 1003.71 1003.95 1004.80 1006.95 1007.53 1005.03 1007.68 1008.83 1009.19 1009.43 1009.40 1009.67 1010.09 1010.13 1009.97 1009.83 1010.16 1010.72 1011.10 1011.30 1011.38 1011.55 1011.73 1011.97 1012.25 1012.49 1012.70 1012.80 1012.91 1012.98 1013.02 1013.03 1013.04 1012.97 1012.82
1011.07 1011.01 1011.65 1012.00 1012.19 1011.35 1009.70 1007.09 1005.16 1004.44 1003.20 1003.15 1003.28 1003.48 1003.33 1003.39 1004.39 1004.23 1003.91 1003.96 1005.74 1007.32 1008.18 1008.98 1009.13 1009.37 1009.67 1010.13 1010.24 1010.06 1010.29 1010.72 1011.11 1011.35 1011.68 1011.80 1011.95 1012.10 1012.45 1012.66 1012.79 1012.91 1012.99 1012.98 1012.95 1012.95 1012.94 1012.87 1012.80
1011.13 1011.47 1012.03 1011.96 1011.43 1009.94 1008.36 1006.48 1005.06 1004.83 1003.37 1002.65 1003.10 1003.13 1002.87 1002.78 1003.53 1003.57 1003.75 1005.19 1006.47 1006.98 1007.43 1008.17 1008.67 1009.00 1009.42 1009.91 1010.13 1010.21 1010.35 1010.70 1011.11 1011.39 1011.81 1011.96 1012.15 1012.29 1012.59 1012.90 1012.88 1012.90 1012.99 1013.01 1012.92 1012.86 1012.90 1012.85 1012.79
1011.40 1012.09 1012.57 1012.07 1010.79 1009.41 1007.78 1006.51 1005.38 1005.01 1004.50 1002.98 1002.74 1003.01 1002.93 1002.80 1003.14 1003.51 1003.72 1005.21 1006.18 1007.19 1008.09 1007.85 1008.18 1008.69 1009.31 1009.68 1009.91 1010.19 1010.35 1010.57 1011.05 1011.45 1011.74 1012.07 1012.31 1012.42 1012.63 1012.91 1013.01 1012.91 1012.92 1012.96 1012.83 1012.96 1012.98 1012.97 1012.96
1012.00 1012.48 1012.93 1012.16 1010.49 1008.99 1007.45 1006.26 1005.31 1004.68 1004.39 1002.97 1002.38 1002.33 1002.87 1002.67 1003.39 1004.15 1004.56 1005.18 1006.05 1007.01 1008.13 1007.87 1008.22 1008.49 1009.01 1009.54 1009.91 1010.18 1010.36 1010.47 1010.89 1011.38 1011.64 1012.04 1012.43 1012.69 1012.80 1012.87 1013.03 1012.94 1012.94 1012.76 1012.95 1013.03 1013.09 1013.14 1013.08
1012.23 1012.85 1012.66 1011.75 1010.52 1008.98 1007.42 1005.96 1005.47 1004.71 1003.89 1002.78 1002.37 1002.64 1003.29 1003.85 1003.79 1005.13 1005.06 1005.67 1006.34 1007.05 1007.55 1008.08 1008.30 1008.69 1008.71 1009.36 1009.91 1010.20 1010.41 1010.63 1010.90 1011.25 1011.65 1011.95 1012.35 1012.68 1012.85 1012.87 1012.94 1012.94 1012.90 1012.97 1012.95 1013.11 1013.23 1013.12 1012.92
1011.95 1012.43 1012.35 1011.52 1010.51 1008.85 1006.80 1006.11 1005.43 1004.66 1003.66 1002.97 1002.21 1001.71 1002.61 1003.31 1003.29 1004.65 1006.24 1006.22 1006.71 1007.11 1007.04 1007.89 1008.53 1008.92 1009.01 1009.30 1009.54 1010.06 1010.42 1010.70 1010.93 1011.17 1011.39 1011.83 1012.29 1012.43 1012.71 1012.80 1012.83 1013.05 1013.09 1013.02 1013.04 1013.13 1013.13 1012.96 1012.81
1011.38 1012.49 1012.33 1011.28 1010.11 1008.77 1006.61 1006.60 1005.37 1004.40 1003.62 1002.26 1001.27 1000.04 1001.38 1003.41 1004.03 1004.70 1006.04 1006.58 1006.99 1007.17 1007.19 1007.91 1008.42 1008.88 1009.08 1009.35 1009.51 1009.81 1010.21 1010.59 1010.89 1011.23 1011.42 1011.83 1012.22 1012.29 1012.40 1012.61 1012.75 1012.90 1013.23 1013.03 1012.89 1013.07 1012.93 1012.87 1012.94
1011.39 1012.00 1011.35 1010.51 1009.61 1008.62 1006.77 1006.91 1005.63 1004.61 1003.94 1002.75 1001.13 999.54 1000.47 1001.43 1003.57 1003.96 1005.29 1006.13 1006.41 1006.80 1007.24 1007.74 1008.13 1008.70 1009.40 1009.38 1009.65 1009.97 1010.23 1010.52 1010.79 1011.10 1011.45 1011.84 1012.08 1012.36 1012.31 1012.56 1012.65 1012.88 1013.06 1012.97 1012.91 1013.25 1012.94 1012.87 1012.78
1010.97 1010.92 1010.51 1009.53 1008.73 1008.03 1006.79 1006.30 1005.69 1004.95 1004.27 1003.72 1003.30 1002.89 1001.36 1002.03 1003.33 1003.29 1004.13 1005.00 1005.24 1006.31 1006.80 1007.43 1007.85 1008.56 1009.33 1009.55 1009.71 1009.89 1010.29 1010.57 1010.73 1011.11 1011.34 1011.83 1012.12 1012.33 1012.54 1012.65 1012.75 1012.87 1012.97 1013.09 1013.28 1012.92 1012.77 1012.58 1012.59
1010.92 1010.33 1009.91 1008.98 1008.09 1007.51 1006.65 1005.65 1004.69 1004.72 1004.19 1003.62 1003.47 1003.72 1004.94 1001.51 1001.98 1002.32 1003.23 1004.42 1004.78 1005.82 1006.61 1007.13 1007.82 1008.47 1009.00 1009.28 1009.76 1009.85 1010.31 1010.57 1010.77 1010.97 1011.38 1011.81 1012.06 1012.28 1012.49 1012.59 1012.66 1012.85 1013.00 1013.03 1013.10 1012.95 1012.79 1012.67 1012.56
1010.68 1010.24 1009.51 1008.72 1008.09 1007.16 1006.39 1005.35 1004.52 1003.63 1003.66 1003.15 1002.91 1003.94 1004.48 1001.86 1001.29 1000.58 1001.47 1003.11 1004.15 1004.95 1005.97 1006.72 1007.51 1008.23 1008.69 1009.31 1009.72 1010.01 1010.16 1010.41 1010.60 1010.92 1011.16 1011.59 1011.87 1012.21 1012.25 1012.45 1012.52 1012.81 1012.70 1012.84 1012.92 1013.09 1012.80 1012.84 1012.64
1010.93 1010.38 1009.53 1008.59 1007.74 1006.95 1006.43 1005.26 1004.56 1002.43 1003.09 1002.79 1002.24 1003.01 1004.25 1002.94 1000.87 1001.01 1001.23 1002.84 1003.67 1004.47 1005.26 1005.97 1006.92 1007.80 1008.53 1009.01 1009.49 1009.94 1010.07 1010.25 1010.66 1010.79 1010.96 1011.38 1011.62 1012.00 1012.32 1012.44 1012.60 1012.61 1012.61 1012.81 1012.82 1012.92 1013.10 1013.17 1012.94
1011.14 1010.69 1009.57 1008.64 1007.84 1007.01 1006.38 1005.22 1003.77 1002.78 1002.80 1002.57 1001.81 1001.53 1002.69 1002.52 1001.92 1000.72 999.97 1001.37 1002.37 1003.54 1004.75 1005.49 1006.50 1007.49 1008.22 1008.73 1009.27 1009.74 1009.80 1010.03 1010.53 1010.69 1010.82 1011.01 1011.38 1011.68 1011.97 1012.39 1012.49 1012.57 1012.61 1012.49 1012.78 1013.01 1013.13 1013.20 1013.17
1011.49 1011.18 1010.55 1009.25 1008.31 1007.12 1006.95 1005.68 1002.81 1003.35 1003.08 1002.08 1001.86 1001.10 1002.32 1003.75 1002.47 1001.89 1001.12 1001.39 1002.33 1003.19 1004.47 1005.45 1006.30 1007.29 1008.02 1008.57 1009.19 1009.56 1009.80 1009.88 1010.22 1010.43 1010.66 1010.91 1011.05 1011.47 1011.89 1012.25 1012.41 1012.51 1012.57 1012.73 1013.13 1013.36 1013.62 1013.73 1013.65
1012.43 1012.28 1011.33 1010.10 1009.19 1008.56 1007.76 1006.51 1002.73 1003.51 1003.11 1002.03 1002.05 1001.41 1001.60 1002.19 1002.85 1002.34 1002.01 1002.44 1003.04 1003.52 1004.29 1005.24 1006.27 1007.30 1007.97 1008.60 1009.14 1009.53 1009.78 1009.90 1010.00 1010.37 1010.77 1010.93 1011.18 1011.57 1012.09 1012.37 1012.50 1012.65 1012.96 1013.28 1013.42 1013.66 1013.95 1014.18 1014.17
1012.73 1012.27 1011.41 1010.54 1009.46 1008.95 1008.23 1006.84 1004.07 1003.73 1003.41 1002.16 1001.83 1001.57 1001.46 1001.64 1002.03 1003.36 1002.27 1002.93 1003.64 1004.50 1005.31 1005.73 1006.22 1007.21 1007.86 1008.48 1008.99 1009.42 1009.81 1010.03 1010.10 1010.48 1010.79 1011.15 1011.40 1011.77 1012.37 1012.59 1012.83 1012.86 1013.31 1013.63 1013.65 1013.97 1014.28 1014.60 1014.68
1011.95 1011.61 1011.04 1010.03 1009.12 1009.16 1008.40 1007.09 1005.02 1003.99 1003.11 1002.28 1001.55 1001.54 1001.59 1001.78 1002.15 1003.63 1003.57 1002.81 1003.75 1004.86 1005.64 1006.05 1006.28 1006.82 1007.36 1008.39 1009.04 1009.45 1009.93 1010.29 1010.69 1010.72 1011.03 1011.53 1011.74 1012.13 1012.55 1012.94 1013.13 1013.37 1013.81 1014.03 1013.96 1014.31 1014.88 1015.04 1014.98
1011.05 1010.90 1010.41 1009.42 1008.71 1008.96 1008.27 1007.01 1005.31 1003.85 1002.72 1001.92 1001.23 1001.22 1001.52 1001.60 1001.60 1002.70 1003.53 1002.90 1003.58 1005.11 1006.46 1006.77 1006.36 1006.60 1006.95 1007.88 1008.68 1009.05 1009.67 1010.39 1010.65 1011.34 1011.79 1012.13 1012.10 1012.55 1012.80 1013.30 1013.63 1013.85 1014.19 1014.32 1014.57 1014.62 1015.24 1015.57 1015.57
1009.95 1009.92 1009.50 1009.32 1008.49 1008.38 1008.16 1006.79 1005.23 1003.25 1002.15 1001.43 1000.50 1000.39 1001.21 1001.52 1001.91 1002.93 1003.56 1003.51 1003.76 1004.70 1006.69 1008.06 1006.26 1006.33 1006.66 1007.21 1008.43 1009.61 1010.12 1010.70 1011.30 1012.01 1012.50 1012.81 1012.75 1012.87 1013.43 1013.63 1014.00 1014.33 1014.54 1014.92 1015.05 1014.99 1015.33 1015.96 1016.12
1009.05 1008.86 1008.71 1008.64 1008.45 1007.87 1008.15 1007.40 1004.83 1003.43 1001.84 1001.18 1000.57 999.95 1000.31 1001.29 1001.77 1002.27 1002.85 1003.86 1003.35 1003.73 1006.03 1005.50 1006.63 1006.07 1006.31 1006.78 1008.16 1009.18 1010.35 1010.90 1012.01 1012.59 1013.04 1013.24 1013.09 1013.41 1013.96 1014.14 1014.35 1014.72 1014.96 1015.32 1015.46 1015.27 1015.49 1015.86 1016.83
1008.37 1008.19 1008.57 1008.38 1008.49 1008.52 1007.67 1007.57 1004.21 1003.71 1002.17 1000.61 1000.33 999.90 999.60 1000.80 1001.65 1002.06 1001.96 1002.91 1002.81 1003.67 1002.90 1006.29 1007.09 1006.94 1006.76 1006.72 1007.95 1009.37 1010.39 1011.07 1012.10 1012.92 1013.44 1013.64 1013.80 1014.01 1014.58 1014.67 1014.99 1015.25 1015.39 1015.68 1015.81 1015.82 1015.92 1016.17 1016.88
1008.10 1008.51 1008.72 1008.64 1008.92 1008.75 1007.57 1007.48 1003.82 1003.57 1001.62 1000.17 999.59 999.51 999.20 1000.13 1001.01 1001.51 1001.65 1002.57 1002.58 1003.38 1003.80 1005.29 1006.55 1005.51 1006.96 1006.93 1008.01 1009.01 1010.22 1011.11 1012.15 1013.27 1013.53 1014.14 1014.22 1014.88 1014.99 1015.00 1015.27 1015.61 1015.82 1016.05 1016.31 1016.52 1016.66 1016.80 1017.21
1007.99 1009.17 1010.10 1010.06 1010.03 1009.06 1007.85 1006.90 1003.72 1002.13 1000.68 999.71 999.38 999.19 998.81 999.67 1000.34 1001.38 1001.77 1002.57 1002.72 1002.52 1003.07 1004.92 1006.80 1007.23 1007.23 1007.49 1008.03 1008.79 1009.98 1010.73 1011.76 1012.89 1013.50 1014.04 1014.84 1015.37 1015.32 1015.34 1015.69 1016.05 1016.10 1016.24 1016.57 1016.85 1017.33 1017.35 1017.58
1008.25 1009.23 1010.61 1010.59 1010.53 1009.85 1008.16 1006.25 1003.99 1001.73 1000.22 999.63 999.42 999.00 998.66 999.05 999.66 1000.74 1001.00 1001.75 1002.17 1002.72 1003.57 1005.45 1007.35 1007.74 1007.39 1007.49 1008.21 1008.84 1010.04 1010.64 1011.65 1012.53 1013.34 1014.07 1015.05 1015.31 1015.42 1015.59 1015.79 1016.11 1016.22 1016.51 1017.07 1017.39 1017.74 1017.74 1017.79
1008.10 1008.89 1009.62 1010.54 1010.71 1010.09 1008.02 1005.63 1003.81 1002.07 1000.99 999.73 998.99 998.52 998.21 998.49 998.97 999.65 1000.53 1000.32 1001.50 1002.07 1003.25 1004.03 1005.24 1006.08 1006.70 1006.92 1007.69 1008.69 1009.87 1010.49 1011.21 1012.51 1013.33 1014.17 1014.80 1015.29 1015.60 1015.97 1016.09 1016.42 1016.61 1016.96 1017.39 1017.78 1018.12 1017.97 1018.20
1007.53 1008.67 1009.84 1010.59 1010.62 1009.49 1007.61 1005.66 1004.16 1002.77 1001.65 1001.16 1000.50 999.06 998.03 998.22 998.31 998.80 999.71 1000.51 1000.82 1001.41 1002.57 1003.33 1004.43 1005.23 1006.07 1006.92 1007.55 1008.60 1009.63 1010.48 1011.42 1012.29 1013.62 1014.39 1014.68 1015.23 1015.80 1016.29 1016.30 1016.69 1017.09 1017.52 1017.62 1018.15 1018.51 1018.42 1018.66
1007.90 1008.45 1009.21 1009.93 1009.90 1008.95 1007.58 1005.30 1003.99 1003.60 1002.94 1001.77 1000.70 999.32 998.03 997.13 997.61 998.27 999.25 999.89 1000.10 1000.98 1001.78 1002.80 1004.16 1005.27 1006.31 1006.89 1008.02 1008.48 1010.01 1010.81 1011.81 1012.81 1013.65 1014.21 1014.81 1015.34 1016.02 1016.22 1016.51 1016.87 1017.51 1017.83 1018.09 1018.36 1018.69 1018.87 1019.05
1007.63 1007.88 1008.66 1009.62 1009.06 1008.01 1006.73 1004.53 1003.75 1003.85 1003.46 1002.53 1001.39 999.67 997.41 995.77 996.87 998.14 998.75 999.51 1000.24 1001.19 1001.35 1002.24 1003.40 1004.80 1005.70 1006.62 1007.77 1008.75 1010.33 1011.56 1012.27 1013.21 1014.34 1014.31 1015.09 1015.59 1016.05 1016.25 1016.77 1017.45 1017.75 1018.14 1018.43 1018.34 1018.65 1018.97 1019.52
Wind_Speed
8 8 1 4 4 5 5 9 3 9 2 3 10 7 7 7 9 7 18 20 17 17 12 14 17 17 16 18 21 20 19 17 15 14 15 14 14 14 14 12 12 13 12 11 9 8 6 6 5
4 5 4 2 5 2 7 4 16 15 6 5 3 6 4 4 9 17 14 32 24 19 14 15 20 19 17 18 19 20 20 17 15 14 14 14 13 13 12 11 11 12 11 10 9 7 5 4 1
4 2 4 5 5 8 7 6 12 3 9 2 3 2 1 4 16 25 13 21 30 22 16 16 21 20 19 18 18 19 19 17 15 15 13 13 12 11 9 10 10 11 10 9 8 6 4 3 3
2 4 4 2 9 8 7 8 9 3 9 4 9 2 7 1 21 18 18 22 19 17 19 22 23 21 21 20 19 19 19 18 16 15 14 12 11 10 9 8 8 9 9 8 6 6 5 4 5
3 3 1 4 8 7 8 9 11 10 8 14 11 8 10 3 10 17 26 22 19 16 13 19 24 23 22 21 20 19 19 18 16 15 14 12 11 9 9 8 7 8 8 7 7 6 5 6 7
4 3 1 7 9 5 8 10 8 8 8 14 5 7 3 15 21 21 21 21 19 18 14 15 21 24 22 20 19 19 18 18 16 14 13 12 10 8 8 8 7 7 7 8 6 6 6 7 8
4 3 4 4 6 7 7 5 6 7 7 14 5 5 1 8 19 15 17 18 18 17 16 11 14 18 23 21 19 18 17 16 15 14 12 12 11 9 8 8 8 8 7 6 6 7 8 8 10
3 4 3 3 2 9 8 5 5 6 17 16 10 10 10 15 21 17 12 15 15 14 16 14 11 12 13 14 20 18 16 16 15 14 14 13 11 10 9 9 9 8 7 7 8 8 9 10 11
4 2 4 6 3 7 18 7 10 11 7 16 12 9 19 18 18 19 14 13 13 12 14 13 14 11 10 11 13 17 19 17 15 13 13 10 5 6 8 8 9 8 8 9 9 8 10 10 11
5 4 8 5 6 13 22 8 15 14 14 13 20 18 31 34 23 25 19 16 17 18 17 16 16 13 8 9 10 6 9 7 6 6 6 4 5 5 6 7 10 8 8 11 9 8 10 8 4
5 6 7 14 13 13 21 17 13 11 8 9 7 2 29 27 21 22 21 18 18 17 14 14 13 12 11 7 5 4 3 4 4 6 6 5 4 3 2 2 2 2 6 3 4 5 3 3 1
4 7 10 14 14 12 16 13 17 10 8 9 8 7 18 27 25 24 21 20 22 19 16 16 14 13 10 8 6 6 5 4 4 5 6 4 3 4 4 4 2 3 2 2 2 2 2 5 3
3 4 8 8 10 12 16 18 15 13 9 10 11 4 16 22 26 25 24 19 20 21 20 18 16 13 9 9 6 5 6 6 5 5 6 4 4 4 3 4 3 3 2 2 2 3 3 4 5
6 10 13 8 10 7 7 11 5 17 8 13 11 5 10 23 25 21 22 19 21 19 20 19 17 13 12 10 9 7 4 5 4 4 5 7 4 3 4 3 3 3 3 3 3 4 4 3 4
8 8 11 6 6 7 4 13 18 7 6 10 11 13 10 19 18 24 27 25 23 19 18 19 17 13 13 12 10 7 7 6 5 5 6 6 6 5 5 4 4 4 3 6 5 5 4 5 5
6 3 5 7 10 9 4 15 26 7 6 18 11 16 5 16 14 8 18 19 19 19 18 17 14 14 13 11 9 7 6 6 5 4 4 6 6 6 5 4 4 4 4 4 4 4 3 4 4
6 3 9 8 11 9 6 13 27 3 7 17 11 12 8 6 5 2 8 9 14 18 19 18 15 14 12 7 7 5 6 5 4 4 4 6 6 6 5 4 4 4 5 4 4 4 3 3 4
6 6 6 11 6 11 14 17 24 15 10 16 13 13 8 4 7 8 11 9 6 8 8 13 14 14 11 7 5 4 4 3 3 4 4 5 5 6 7 5 5 5 5 4 4 4 5 3 3
8 5 11 15 12 1 13 18 20 15 10 14 14 10 8 8 9 10 5 14 11 8 8 14 16 15 12 7 5 4 5 4 5 7 8 7 6 7 7 5 6 5 5 4 4 3 4 5 3
7 8 9 10 14 4 15 23 22 19 14 13 18 12 8 6 5 11 7 12 13 10 3 6 15 13 11 9 3 4 5 5 7 7 8 7 9 7 7 6 6 5 5 6 6 4 2 4 5
7 8 8 11 11 7 10 20 16 18 10 9 15 14 6 9 8 13 13 11 14 16 6 13 16 13 10 10 8 7 8 6 5 6 6 6 9 9 7 7 6 6 5 5 4 4 5 3 4
10 7 10 12 6 8 7 10 13 11 17 7 11 13 10 9 8 10 15 12 17 14 13 18 11 16 12 13 11 15 8 9 3 5 6 6 8 9 7 7 7 6 4 6 4 4 4 4 3
11 12 14 8 5 3 12 5 9 4 13 16 8 12 12 14 15 15 16 18 19 22 34 22 12 11 12 12 12 9 9 10 8 7 10 8 7 8 7 7 7 7 5 5 6 6 7 4 4
9 5 5 4 2 7 11 7 12 5 11 10 8 10 14 12 14 19 16 16 17 18 18 20 10 16 10 12 13 16 17 13 10 8 8 6 5 4 5 7 6 6 6 6 5 6 7 6 5
7 4 4 5 3 5 2 2 17 7 14 16 13 10 11 16 15 16 17 18 17 17 14 10 9 13 10 13 14 16 16 15 15 11 9 10 5 3 5 6 6 4 5 6 6 7 6 5 5
2 6 6 6 2 4 10 8 8 8 18 18 13 10 9 12 18 19 23 22 23 25 18 21 25 30 10 15 15 14 15 10 9 10 9 7 5 4 5 6 6 7 6 6 6 4 4 5 6
1 3 5 2 1 2 5 8 8 12 15 14 14 13 9 12 18 21 21 22 20 21 22 25 25 24 15 16 15 15 14 15 13 12 9 7 6 5 6 7 7 6 7 7 6 4 4 6 6
6 4 2 2 4 5 6 5 3 15 21 22 21 21 16 13 15 17 19 21 18 19 19 19 16 17 16 17 15 13 13 14 14 13 11 9 7 7 7 6 7 7 6 6 7 5 4 6 4
1 2 3 3 3 4 4 5 5 8 10 20 25 26 23 14 15 16 16 18 19 18 15 17 18 20 17 16 15 16 13 15 13 12 11 10 8 8 7 7 7 7 6 5 6 6 6 7 7
3 5 6 4 7 5 4 8 7 12 10 17 22 22 21 19 18 17 17 17 15 15 17 16 17 17 17 18 17 18 16 14 13 12 10 10 9 7 7 7 7 6 6 6 6 6 6 7 6
Wind_Direction
330 309 319 32 68 68 247 248 255 265 285 212 138 148 199 140 165 197 159 208 261 175 180 159 155 147 143 134 127 123 119 119 120 117 115 112 110 109 109 112 115 115 116 116 112 105 102 89 67
327 315 41 78 108 176 258 228 253 242 237 48 242 106 224 158 103 149 172 186 184 166 169 162 155 149 144 138 132 129 127 128 128 123 121 121 119 118 122 122 121 121 122 121 119 119 118 117 121
298 206 94 145 168 195 230 230 250 347 255 173 43 264 62 180 125 160 242 173 159 160 163 164 154 149 144 142 138 133 132 134 135 133 133 131 128 124 128 127 126 126 129 129 132 144 162 179 239
339 15 5 155 223 250 216 274 272 28 314 233 135 292 330 104 160 180 148 148 150 150 158 157 152 148 147 147 143 140 139 140 142 141 141 139 135 132 130 132 135 137 138 139 158 177 199 228 254
41 66 249 246 252 265 262 263 278 286 285 276 306 174 166 291 125 145 141 146 148 147 164 153 150 147 150 150 148 147 145 143 145 146 145 144 143 143 140 145 151 150 154 165 191 211 231 256 280
15 93 74 244 258 270 285 260 280 277 251 280 274 140 190 132 135 148 144 144 146 145 157 150 150 150 150 152 152 151 150 147 148 150 145 145 148 151 151 159 170 173 178 190 216 241 259 279 290
124 85 232 247 272 294 264 299 282 285 276 290 224 147 248 146 136 141 136 135 138 142 142 149 151 155 151 153 154 154 153 151 149 147 146 148 152 161 170 174 187 198 202 222 238 262 281 284 280
121 99 277 276 277 285 272 317 314 326 320 331 258 177 181 159 144 125 134 128 132 142 140 151 153 155 151 157 156 158 156 154 152 153 153 155 158 171 183 190 203 220 229 240 256 269 279 283 285
109 29 274 256 295 269 294 331 322 301 311 324 307 152 137 143 127 125 131 135 138 145 147 150 155 156 156 160 164 159 159 157 155 157 160 155 164 187 194 206 218 219 245 253 257 273 284 295 311
128 157 239 225 271 280 283 303 309 330 341 331 332 131 148 150 152 146 155 157 155 157 156 160 158 153 160 164 158 153 161 156 152 162 159 154 173 202 202 214 230 227 244 261 279 311 292 302 291
221 224 232 265 259 264 280 289 288 286 309 301 355 7 147 151 167 159 155 165 160 158 159 163 155 155 165 161 158 155 144 152 161 164 151 171 174 215 223 234 232 210 250 298 359 314 302 270 299
307 253 240 259 260 263 268 280 277 256 265 266 259 196 270 167 166 161 155 165 161 161 164 162 160 163 169 156 169 163 157 166 175 175 164 171 178 216 212 231 189 210 245 237 280 281 340 31 47
227 303 308 281 275 264 270 268 272 265 264 269 276 171 259 189 175 165 162 160 158 163 165 166 162 168 159 162 166 172 168 178 189 170 170 176 188 220 177 228 213 176 192 155 143 215 68 47 24
308 310 301 299 294 273 285 294 313 271 297 287 281 273 130 252 173 161 154 164 168 163 166 163 164 165 163 167 168 178 170 180 179 179 178 189 190 187 185 155 123 123 121 160 117 75 50 32 19
303 307 315 307 291 280 340 306 278 312 312 296 291 293 111 299 210 172 165 168 168 167 163 164 162 160 166 170 172 181 188 174 179 191 191 170 179 161 130 158 122 129 143 92 71 51 37 28 5
300 318 332 321 317 294 121 275 274 299 299 290 299 301 339 173 227 189 175 168 167 155 162 160 163 164 171 172 180 186 183 177 187 181 178 172 148 139 112 104 90 82 78 81 74 53 26 22 24
10 298 314 322 333 332 333 284 280 305 240 276 282 291 303 99 299 284 135 149 166 163 157 160 162 169 172 166 178 169 172 174 181 154 156 144 132 105 102 102 100 99 80 68 68 59 50 24 9
240 272 261 274 295 333 309 288 289 310 253 263 271 274 288 229 187 273 130 105 99 131 143 161 158 169 169 157 153 126 130 134 120 111 101 112 102 107 104 95 95 84 83 63 63 79 52 58 44
215 233 261 282 271 234 282 285 287 304 269 257 263 262 267 236 174 194 259 136 105 121 178 163 164 169 161 156 142 128 125 108 95 86 80 85 94 92 101 92 91 79 82 80 57 76 69 29 36
213 234 260 276 260 179 309 297 288 288 273 246 257 249 242 247 239 138 198 148 120 89 332 191 173 168 158 152 136 116 114 87 104 91 79 82 82 85 82 95 90 89 91 63 52 73 93 66 14
223 230 255 252 287 223 247 280 275 284 272 271 251 241 176 206 197 135 174 166 136 125 16 266 177 169 155 133 109 96 98 94 85 85 84 77 87 81 82 83 93 82 81 79 72 77 90 102 31
272 232 257 265 271 273 73 288 269 270 277 284 275 244 224 182 173 174 161 159 147 131 163 266 274 170 158 139 125 137 143 127 88 104 101 87 83 82 84 88 90 92 84 77 70 64 91 102 72
284 276 273 237 245 307 272 249 280 198 277 281 270 245 243 177 174 179 185 171 157 168 169 212 237 259 163 136 139 130 121 115 117 108 103 89 81 79 86 88 88 85 83 82 84 68 70 70 95
296 306 305 297 182 249 268 191 267 209 233 272 273 241 241 171 182 187 184 172 165 179 188 172 182 281 174 135 135 134 133 131 123 124 111 109 87 84 87 92 91 90 87 85 83 75 72 80 78
245 88 331 318 352 226 207 327 246 249 245 236 255 271 237 168 183 172 165 172 169 177 171 132 135 270 205 135 134 138 139 138 132 136 134 126 119 126 115 106 98 96 103 88 82 81 78 74 82
222 185 175 225 249 282 299 237 249 252 244 253 260 248 238 170 178 182 173 178 174 173 181 164 173 212 186 142 139 139 137 134 132 132 135 122 135 133 131 111 107 106 100 87 85 80 83 85 83
217 185 219 239 277 280 246 282 291 337 324 281 255 261 248 183 176 186 179 179 170 178 179 182 172 181 157 142 135 136 138 140 137 133 124 133 130 124 118 108 103 109 102 102 105 102 94 83 79
178 155 93 38 243 251 270 295 238 358 355 338 338 339 272 175 183 174 166 180 177 179 165 163 154 144 139 136 137 135 133 131 134 128 136 136 123 115 111 111 111 115 112 111 99 99 91 86 73
164 3 67 148 212 194 294 263 279 15 1 339 330 320 305 173 180 172 169 174 172 163 160 143 138 138 135 127 128 119 126 129 128 132 133 132 123 123 131 126 117 123 123 108 108 108 96 95 86
220 236 165 172 273 218 212 276 324 41 4 348 310 312 323 176 172 169 163 164 154 165 157 148 140 138 134 133 130 127 127 126 124 126 134 131 134 132 134 122 112 120 129 134 132 112 109 97 98